Time,TemperatureF,DewpointF,PressureIn,WindDirection,WindDirectionDegrees,WindSpeedMPH,WindSpeedGustMPH,Humidity,HourlyPrecipIn,Conditions,Clouds,dailyrainin,SoftwareType,DateUTC
2013-09-08 00:01:00,63.1,62.8,30.05,SSW,202,0.0,0.0,99,0.00,,---,0.00,VWS V14.00,2013-09-08 04:01:00,
2013-09-08 00:02:00,63.1,62.8,30.05,SSW,202,0.0,0.0,99,0.00,,---,0.00,VWS V14.00,2013-09-08 04:02:00,
2013-09-08 00:03:00,63.1,62.8,30.05,SSW,202,0.0,0.0,99,0.00,,---,0.00,VWS V14.00,2013-09-08 04:03:00,
2013-09-08 00:08:00,63.1,62.8,30.04,SSW,202,0.0,0.0,99,0.00,,---,0.00,VWS V14.00,2013-09-08 04:08:00,
2013-09-08 00:13:00,62.9,62.6,30.04,SSW,202,0.0,0.0,99,0.00,,---,0.00,VWS V14.00,2013-09-08 04:13:00,
2013-09-08 00:18:00,62.7,62.4,30.04,SSW,202,0.0,0.0,99,0.00,,---,0.00,VWS V14.00,2013-09-08 04:18:00,
2013-09-08 00:23:00,62.7,62.4,30.04,SSW,202,0.0,0.0,99,0.00,,---,0.00,VWS V14.00,2013-09-08 04:23:00,
2013-09-08 00:28:00,62.4,62.1,30.04,SSW,202,0.0,0.0,99,0.00,,---,0.00,VWS V14.00,2013-09-08 04:28:00,
2013-09-08 00:33:00,62.4,62.1,30.05,SSW,202,0.0,0.0,99,0.00,,---,0.00,VWS V14.00,2013-09-08 04:33:00,
2013-09-08 00:38:00,62.4,62.1,30.04,SSW,202,0.0,0.0,99,0.00,,---,0.00,VWS V14.00,2013-09-08 04:38:00,
2013-09-08 00:43:00,62.2,62.2,30.05,SSW,202,0.0,0.0,100,0.00,,---,0.00,VWS V14.00,2013-09-08 04:43:00,
2013-09-08 00:48:00,62.2,62.2,30.05,SSW,202,0.0,0.0,100,0.00,,---,0.00,VWS V14.00,2013-09-08 04:48:00,
2013-09-08 00:53:00,62.0,62.0,30.05,SSW,202,0.0,0.0,100,0.00,,---,0.00,VWS V14.00,2013-09-08 04:53:00,
2013-09-08 00:58:00,61.8,61.8,30.05,SSW,202,0.0,0.0,100,0.00,,---,0.00,VWS V14.00,2013-09-08 04:58:00,
2013-09-08 01:03:00,61.8,61.8,30.05,SSW,202,0.0,0.0,100,0.00,,---,0.00,VWS V14.00,2013-09-08 05:03:00,
2013-09-08 01:08:00,61.8,61.8,30.05,SSW,202,0.0,0.0,100,0.00,,---,0.00,VWS V14.00,2013-09-08 05:08:00,
2013-09-08 01:13:00,61.8,61.8,30.05,SSW,202,0.0,0.0,100,0.00,,---,0.00,VWS V14.00,2013-09-08 05:13:00,
2013-09-08 01:18:00,61.8,61.8,30.05,SSW,202,0.0,0.0,100,0.00,,---,0.00,VWS V14.00,2013-09-08 05:18:00,
2013-09-08 01:23:00,61.8,61.8,30.05,SSW,202,0.0,0.0,100,0.00,,---,0.00,VWS V14.00,2013-09-08 05:23:00,
2013-09-08 01:28:00,61.8,61.8,30.06,SSW,202,0.0,0.0,100,0.00,,---,0.00,VWS V14.00,2013-09-08 05:28:00,
2013-09-08 01:33:00,61.8,61.8,30.05,SSW,202,0.0,0.0,100,0.00,,---,0.00,VWS V14.00,2013-09-08 05:33:00,
2013-09-08 01:38:00,61.8,61.8,30.05,SSW,202,0.0,0.0,100,0.00,,---,0.00,VWS V14.00,2013-09-08 05:38:00,
2013-09-08 01:43:00,61.8,61.8,30.05,SSW,202,0.0,0.0,100,0.00,,---,0.00,VWS V14.00,2013-09-08 05:43:00,
2013-09-08 01:48:00,61.8,61.8,30.05,SSW,202,0.0,0.0,100,0.00,,---,0.00,VWS V14.00,2013-09-08 05:48:00,
2013-09-08 01:53:00,61.8,61.8,30.05,SSW,202,0.0,0.0,100,0.00,,---,0.00,VWS V14.00,2013-09-08 05:53:00,
2013-09-08 01:58:00,61.8,61.8,30.05,SSW,202,0.0,0.0,100,0.00,,---,0.00,VWS V14.00,2013-09-08 05:58:00,
2013-09-08 02:03:00,61.8,61.8,30.05,SSW,202,0.0,0.0,100,0.00,,---,0.00,VWS V14.00,2013-09-08 06:03:00,
2013-09-08 02:08:00,61.8,61.8,30.05,SSW,202,0.0,0.0,100,0.00,,---,0.00,VWS V14.00,2013-09-08 06:08:00,
2013-09-08 02:13:00,61.8,61.8,30.05,SSW,202,0.0,0.0,100,0.00,,---,0.00,VWS V14.00,2013-09-08 06:13:00,
2013-09-08 02:18:00,61.7,61.7,30.05,SSW,202,0.0,0.0,100,0.00,,---,0.00,VWS V14.00,2013-09-08 06:18:00,
2013-09-08 02:23:00,61.7,61.7,30.05,SSW,202,0.0,0.0,100,0.00,,---,0.00,VWS V14.00,2013-09-08 06:23:00,
2013-09-08 02:28:00,61.5,61.5,30.05,SSW,202,0.0,0.0,100,0.00,,---,0.00,VWS V14.00,2013-09-08 06:28:00,
2013-09-08 02:33:00,61.5,61.5,30.05,SSW,202,0.0,0.0,100,0.00,,---,0.00,VWS V14.00,2013-09-08 06:33:00,
2013-09-08 02:38:00,61.5,61.5,30.04,SSW,202,0.0,0.0,100,0.00,,---,0.00,VWS V14.00,2013-09-08 06:38:00,
2013-09-08 02:43:00,61.5,61.5,30.04,SSW,202,0.0,0.0,100,0.00,,---,0.00,VWS V14.00,2013-09-08 06:43:00,
2013-09-08 02:48:00,61.3,61.3,30.04,SSW,202,0.0,0.0,100,0.00,,---,0.00,VWS V14.00,2013-09-08 06:48:00,
2013-09-08 02:53:00,61.3,61.3,30.04,SSW,202,0.0,0.0,100,0.00,,---,0.00,VWS V14.00,2013-09-08 06:53:00,
2013-09-08 02:58:00,61.3,61.3,30.03,SSW,202,0.0,0.0,100,0.00,,---,0.00,VWS V14.00,2013-09-08 06:58:00,
2013-09-08 03:03:00,61.1,61.1,30.03,SSW,202,0.0,0.0,100,0.00,,---,0.00,VWS V14.00,2013-09-08 07:03:00,
2013-09-08 03:08:00,61.1,61.1,30.03,SSW,202,0.0,0.0,100,0.00,,---,0.00,VWS V14.00,2013-09-08 07:08:00,
2013-09-08 03:13:00,60.9,60.9,30.04,SSW,202,0.0,0.0,100,0.00,,---,0.00,VWS V14.00,2013-09-08 07:13:00,
2013-09-08 03:19:00,60.9,60.9,30.03,SSW,202,0.0,0.0,100,0.00,,---,0.00,VWS V14.00,2013-09-08 07:19:00,
2013-09-08 03:24:00,60.9,60.9,30.03,SSW,202,0.0,0.0,100,0.00,,---,0.00,VWS V14.00,2013-09-08 07:24:00,
2013-09-08 03:29:00,60.6,60.6,30.03,SSW,202,0.0,0.0,100,0.00,,---,0.00,VWS V14.00,2013-09-08 07:29:00,
2013-09-08 03:34:00,60.6,60.6,30.03,SSW,202,0.0,0.0,100,0.00,,---,0.00,VWS V14.00,2013-09-08 07:34:00,
2013-09-08 03:39:00,60.6,60.6,30.03,SSW,202,0.0,0.0,100,0.00,,---,0.00,VWS V14.00,2013-09-08 07:39:00,
2013-09-08 03:44:00,60.4,60.4,30.03,SSW,202,0.0,0.0,100,0.00,,---,0.00,VWS V14.00,2013-09-08 07:44:00,
2013-09-08 03:49:00,60.4,60.4,30.02,SSW,202,0.0,0.0,100,0.00,,---,0.00,VWS V14.00,2013-09-08 07:49:00,
2013-09-08 03:54:00,60.4,60.4,30.03,SSW,202,0.0,0.0,100,0.00,,---,0.00,VWS V14.00,2013-09-08 07:54:00,
2013-09-08 03:59:00,60.4,60.4,30.03,SSW,202,0.0,0.0,100,0.00,,---,0.00,VWS V14.00,2013-09-08 07:59:00,
2013-09-08 04:04:00,60.2,60.2,30.03,SSW,202,0.0,0.0,100,0.00,,---,0.00,VWS V14.00,2013-09-08 08:04:00,
2013-09-08 04:09:00,60.0,60.0,30.03,SSW,202,0.0,0.0,100,0.00,,---,0.00,VWS V14.00,2013-09-08 08:09:00,
2013-09-08 04:14:00,60.0,60.0,30.03,SSW,202,0.0,0.0,100,0.00,,---,0.00,VWS V14.00,2013-09-08 08:14:00,
2013-09-08 04:19:00,60.0,60.0,30.03,SSW,202,0.0,0.0,100,0.00,,---,0.00,VWS V14.00,2013-09-08 08:19:00,
2013-09-08 04:24:00,60.0,60.0,30.03,SSW,202,0.0,0.0,100,0.00,,---,0.00,VWS V14.00,2013-09-08 08:24:00,
2013-09-08 04:29:00,59.9,59.9,30.03,SSW,202,0.0,0.0,100,0.00,,---,0.00,VWS V14.00,2013-09-08 08:29:00,
2013-09-08 04:34:00,59.9,59.9,30.03,SSW,202,0.0,0.0,100,0.00,,---,0.00,VWS V14.00,2013-09-08 08:34:00,
2013-09-08 04:39:00,59.7,59.7,30.03,SSW,202,0.0,0.0,100,0.00,,---,0.00,VWS V14.00,2013-09-08 08:39:00,
2013-09-08 04:44:00,59.7,59.7,30.03,SSW,202,0.0,0.0,100,0.00,,---,0.00,VWS V14.00,2013-09-08 08:44:00,
2013-09-08 04:49:00,59.7,59.7,30.03,SSW,202,0.0,0.0,100,0.00,,---,0.00,VWS V14.00,2013-09-08 08:49:00,
2013-09-08 04:54:00,59.9,59.9,30.03,SSW,202,0.0,0.0,100,0.00,,---,0.00,VWS V14.00,2013-09-08 08:54:00,
2013-09-08 04:59:00,59.9,59.9,30.02,SSW,202,0.0,0.0,100,0.00,,---,0.00,VWS V14.00,2013-09-08 08:59:00,
2013-09-08 05:04:00,59.9,59.9,30.02,SSW,202,0.0,0.0,100,0.00,,---,0.00,VWS V14.00,2013-09-08 09:04:00,
2013-09-08 05:09:00,59.9,59.9,30.02,SSW,202,0.0,0.0,100,0.00,,---,0.00,VWS V14.00,2013-09-08 09:09:00,
2013-09-08 05:14:00,59.9,59.9,30.02,SSW,202,0.0,0.0,100,0.00,,---,0.00,VWS V14.00,2013-09-08 09:14:00,
2013-09-08 05:19:00,59.9,59.9,30.03,SSW,202,0.0,0.0,100,0.00,,---,0.00,VWS V14.00,2013-09-08 09:19:00,
2013-09-08 05:24:00,60.0,60.0,30.02,SSW,202,0.0,0.0,100,0.00,,---,0.00,VWS V14.00,2013-09-08 09:24:00,
2013-09-08 05:29:00,60.0,60.0,30.03,SSW,202,0.0,0.0,100,0.00,,---,0.00,VWS V14.00,2013-09-08 09:29:00,
2013-09-08 05:34:00,60.0,60.0,30.02,SSW,202,0.0,0.0,100,0.00,,---,0.00,VWS V14.00,2013-09-08 09:34:00,
2013-09-08 05:39:00,60.0,60.0,30.02,SSW,202,0.0,0.0,100,0.00,,---,0.00,VWS V14.00,2013-09-08 09:39:00,
2013-09-08 05:44:00,60.0,60.0,30.03,SSW,202,0.0,0.0,100,0.00,,---,0.00,VWS V14.00,2013-09-08 09:44:00,
2013-09-08 05:49:00,60.2,60.2,30.02,SSW,202,0.0,0.0,100,0.00,,---,0.00,VWS V14.00,2013-09-08 09:49:00,
2013-09-08 05:54:00,60.4,60.4,30.03,SSW,202,0.0,0.0,100,0.00,,---,0.00,VWS V14.00,2013-09-08 09:54:00,
2013-09-08 05:59:00,60.4,60.4,30.03,SSW,202,0.0,0.0,100,0.00,,---,0.00,VWS V14.00,2013-09-08 09:59:00,
2013-09-08 06:04:00,60.4,60.4,30.03,SSW,202,0.0,0.0,100,0.00,,---,0.00,VWS V14.00,2013-09-08 10:04:00,
2013-09-08 06:09:00,60.6,60.6,30.03,SSW,202,0.0,0.0,100,0.00,,---,0.00,VWS V14.00,2013-09-08 10:09:00,
2013-09-08 06:14:00,60.6,60.6,30.03,SSW,202,0.0,0.0,100,0.00,,---,0.00,VWS V14.00,2013-09-08 10:14:00,
2013-09-08 06:19:00,60.6,60.6,30.03,SSW,202,0.0,0.0,100,0.00,,---,0.00,VWS V14.00,2013-09-08 10:19:00,
2013-09-08 06:24:00,60.6,60.6,30.03,SSW,202,0.0,0.0,100,0.00,,---,0.00,VWS V14.00,2013-09-08 10:24:00,
2013-09-08 06:29:00,60.6,60.6,30.03,SSW,202,0.0,0.0,100,0.00,,---,0.00,VWS V14.00,2013-09-08 10:29:00,
2013-09-08 06:34:00,60.6,60.6,30.03,SSW,202,0.0,0.0,100,0.00,,---,0.00,VWS V14.00,2013-09-08 10:34:00,
2013-09-08 06:39:00,60.6,60.6,30.03,SSW,202,0.0,0.0,100,0.00,,---,0.00,VWS V14.00,2013-09-08 10:39:00,
2013-09-08 06:44:00,60.6,60.6,30.04,SSW,202,0.0,0.0,100,0.00,,---,0.00,VWS V14.00,2013-09-08 10:44:00,
2013-09-08 06:49:00,60.8,60.8,30.04,SSW,202,0.0,0.0,100,0.00,,---,0.00,VWS V14.00,2013-09-08 10:49:00,
2013-09-08 06:54:00,60.8,60.8,30.04,SSW,202,0.0,0.0,100,0.00,,---,0.00,VWS V14.00,2013-09-08 10:54:00,
2013-09-08 06:59:00,60.9,60.9,30.04,SSW,202,0.0,0.0,100,0.00,,---,0.00,VWS V14.00,2013-09-08 10:59:00,
2013-09-08 07:04:00,60.9,60.9,30.04,SSW,202,0.0,0.0,100,0.00,,---,0.00,VWS V14.00,2013-09-08 11:04:00,
2013-09-08 07:09:00,60.9,60.9,30.04,SSW,202,0.0,0.0,100,0.00,,---,0.00,VWS V14.00,2013-09-08 11:09:00,
2013-09-08 07:14:00,60.9,60.9,30.04,SSW,202,0.0,0.0,100,0.00,,---,0.00,VWS V14.00,2013-09-08 11:14:00,
2013-09-08 07:19:00,60.9,60.9,30.04,SSW,202,0.0,0.0,100,0.00,,---,0.00,VWS V14.00,2013-09-08 11:19:00,
2013-09-08 07:24:00,60.8,60.8,30.04,SSW,202,0.0,0.0,100,0.00,,---,0.00,VWS V14.00,2013-09-08 11:24:00,
2013-09-08 07:29:00,60.9,60.9,30.04,SSW,202,0.0,0.0,100,0.00,,---,0.00,VWS V14.00,2013-09-08 11:29:00,
2013-09-08 07:35:00,60.9,60.9,30.04,SSW,202,0.0,0.0,100,0.00,,---,0.00,VWS V14.00,2013-09-08 11:35:00,
2013-09-08 07:40:00,60.6,60.6,30.04,SSW,202,0.0,0.0,100,0.00,,---,0.00,VWS V14.00,2013-09-08 11:40:00,
2013-09-08 07:45:00,60.6,60.6,30.04,SSW,202,0.0,0.0,100,0.00,,---,0.00,VWS V14.00,2013-09-08 11:45:00,
2013-09-08 07:50:00,60.8,60.8,30.04,SSW,202,0.0,0.0,100,0.00,,---,0.00,VWS V14.00,2013-09-08 11:50:00,
2013-09-08 07:55:00,60.9,60.9,30.04,SSW,202,0.0,0.0,100,0.00,,---,0.00,VWS V14.00,2013-09-08 11:55:00,
2013-09-08 08:00:00,61.1,61.1,30.04,SSW,202,0.0,0.0,100,0.00,,---,0.00,VWS V14.00,2013-09-08 12:00:00,
2013-09-08 08:05:00,61.3,61.3,30.04,SSW,202,0.0,0.0,100,0.00,,---,0.00,VWS V14.00,2013-09-08 12:05:00,
2013-09-08 08:10:00,61.5,61.5,30.04,SSW,202,0.0,0.0,100,0.00,,---,0.00,VWS V14.00,2013-09-08 12:10:00,
2013-09-08 08:15:00,61.8,61.8,30.04,SSW,202,0.0,0.0,100,0.00,,---,0.00,VWS V14.00,2013-09-08 12:15:00,
2013-09-08 08:20:00,62.0,62.0,30.04,SSW,202,0.0,0.0,100,0.00,,---,0.00,VWS V14.00,2013-09-08 12:20:00,
2013-09-08 08:25:00,62.0,62.0,30.04,SSW,202,0.0,0.0,100,0.00,,---,0.00,VWS V14.00,2013-09-08 12:25:00,
2013-09-08 08:30:00,62.4,62.4,30.04,SSW,202,0.0,0.0,100,0.00,,---,0.00,VWS V14.00,2013-09-08 12:30:00,
2013-09-08 08:35:00,62.4,62.4,30.04,SSW,202,0.0,0.0,100,0.00,,---,0.00,VWS V14.00,2013-09-08 12:35:00,
2013-09-08 08:40:00,62.4,62.4,30.04,SSW,202,0.0,0.0,100,0.00,,---,0.00,VWS V14.00,2013-09-08 12:40:00,
2013-09-08 08:45:00,62.7,62.7,30.04,SSW,202,0.0,0.0,100,0.00,,---,0.00,VWS V14.00,2013-09-08 12:45:00,
2013-09-08 08:50:00,62.7,62.7,30.04,SSW,202,0.0,0.0,100,0.00,,---,0.00,VWS V14.00,2013-09-08 12:50:00,
2013-09-08 08:55:00,62.9,62.9,30.04,SSW,202,0.0,0.0,100,0.00,,---,0.00,VWS V14.00,2013-09-08 12:55:00,
2013-09-08 09:00:00,63.5,63.5,30.04,SSW,202,0.0,0.0,100,0.00,,---,0.00,VWS V14.00,2013-09-08 13:00:00,
2013-09-08 09:05:00,64.2,64.2,30.04,SSW,202,0.0,0.0,100,0.00,,---,0.00,VWS V14.00,2013-09-08 13:05:00,
2013-09-08 09:10:00,65.3,65.3,30.04,SSW,202,0.0,0.0,100,0.00,,---,0.00,VWS V14.00,2013-09-08 13:10:00,
2013-09-08 09:15:00,66.3,66.3,30.04,SSW,202,0.0,0.0,100,0.00,,---,0.00,VWS V14.00,2013-09-08 13:15:00,
2013-09-08 09:20:00,67.1,67.1,30.04,SSW,202,0.0,0.0,100,0.00,,---,0.00,VWS V14.00,2013-09-08 13:20:00,
2013-09-08 09:25:00,67.8,67.8,30.04,SSW,202,0.0,0.0,100,0.00,,---,0.00,VWS V14.00,2013-09-08 13:25:00,
2013-09-08 09:30:00,68.7,68.7,30.05,SSW,202,0.0,0.0,100,0.00,,---,0.00,VWS V14.00,2013-09-08 13:30:00,
2013-09-08 09:35:00,69.6,69.6,30.04,SSW,202,0.0,0.0,100,0.00,,---,0.00,VWS V14.00,2013-09-08 13:35:00,
2013-09-08 09:40:00,70.3,70.3,30.04,SSW,202,0.0,0.0,100,0.00,,---,0.00,VWS V14.00,2013-09-08 13:40:00,
2013-09-08 09:45:00,71.7,71.7,30.04,SSW,202,0.0,0.0,100,0.00,,---,0.00,VWS V14.00,2013-09-08 13:45:00,
2013-09-08 09:50:00,72.8,72.5,30.05,SSW,202,0.0,0.0,99,0.00,,---,0.00,VWS V14.00,2013-09-08 13:50:00,
2013-09-08 09:55:00,73.7,73.1,30.05,SSW,202,0.0,0.0,98,0.00,,---,0.00,VWS V14.00,2013-09-08 13:55:00,
2013-09-08 10:00:00,74.6,73.4,30.04,SSW,202,0.0,0.0,96,0.00,,---,0.00,VWS V14.00,2013-09-08 14:00:00,
2013-09-08 10:05:00,75.3,73.8,30.04,SSW,202,0.0,0.0,95,0.00,,---,0.00,VWS V14.00,2013-09-08 14:05:00,
2013-09-08 10:10:00,75.9,74.4,30.04,SSW,202,0.0,0.0,95,0.00,,---,0.00,VWS V14.00,2013-09-08 14:10:00,
2013-09-08 10:15:00,76.6,74.4,30.04,SSW,202,0.0,0.0,93,0.00,,---,0.00,VWS V14.00,2013-09-08 14:15:00,
2013-09-08 10:20:00,77.3,75.1,30.04,SSW,202,0.0,0.0,93,0.00,,---,0.00,VWS V14.00,2013-09-08 14:20:00,
2013-09-08 10:25:00,77.7,74.9,30.04,SW,225,0.0,0.0,91,0.00,,---,0.00,VWS V14.00,2013-09-08 14:25:00,
2013-09-08 10:30:00,78.0,74.8,30.04,SW,225,0.0,0.0,90,0.00,,---,0.00,VWS V14.00,2013-09-08 14:30:00,
2013-09-08 10:35:00,78.6,75.1,30.04,SW,225,0.0,0.0,89,0.00,,---,0.00,VWS V14.00,2013-09-08 14:35:00,
2013-09-08 10:40:00,78.9,75.1,30.04,SW,225,0.0,0.0,88,0.00,,---,0.00,VWS V14.00,2013-09-08 14:40:00,
2013-09-08 10:45:00,79.3,75.1,30.04,WSW,248,0.0,0.0,87,0.00,,---,0.00,VWS V14.00,2013-09-08 14:45:00,
2013-09-08 10:50:00,79.7,75.2,30.04,WSW,248,0.0,0.0,86,0.00,,---,0.00,VWS V14.00,2013-09-08 14:50:00,
2013-09-08 10:55:00,79.8,74.9,30.03,WSW,248,0.0,0.0,85,0.00,,---,0.00,VWS V14.00,2013-09-08 14:55:00,
2013-09-08 11:00:00,80.2,74.9,30.03,WSW,248,0.0,0.0,84,0.00,,---,0.00,VWS V14.00,2013-09-08 15:00:00,
2013-09-08 11:05:00,80.6,75.0,30.04,WSW,248,0.0,0.0,83,0.00,,---,0.00,VWS V14.00,2013-09-08 15:05:00,
2013-09-08 11:10:00,80.7,74.7,30.04,WSW,248,0.0,0.0,82,0.00,,---,0.00,VWS V14.00,2013-09-08 15:10:00,
2013-09-08 11:15:00,80.9,74.5,30.04,East,90,0.0,0.0,81,0.00,,---,0.00,VWS V14.00,2013-09-08 15:15:00,
2013-09-08 11:20:00,81.3,74.9,30.04,ESE,112,0.0,0.0,81,0.00,,---,0.00,VWS V14.00,2013-09-08 15:20:00,
2013-09-08 11:25:00,81.5,75.1,30.04,WSW,248,0.0,0.0,81,0.00,,---,0.00,VWS V14.00,2013-09-08 15:25:00,
2013-09-08 11:32:00,82.2,75.0,30.04,East,90,0.0,0.0,79,0.00,,---,0.00,VWS V14.00,2013-09-08 15:32:00,
2013-09-08 11:37:00,82.5,74.9,30.04,WNW,292,0.0,0.0,78,0.00,,---,0.00,VWS V14.00,2013-09-08 15:37:00,
2013-09-08 11:42:00,83.1,75.5,30.04,West,270,0.0,0.0,78,0.00,,---,0.00,VWS V14.00,2013-09-08 15:42:00,
2013-09-08 11:47:00,84.0,75.6,30.04,West,270,0.0,0.0,76,0.00,,---,0.00,VWS V14.00,2013-09-08 15:47:00,
2013-09-08 11:52:00,84.0,75.6,30.04,NW,315,0.0,0.0,76,0.00,,---,0.00,VWS V14.00,2013-09-08 15:52:00,
2013-09-08 11:57:00,84.0,75.2,30.04,ENE,68,0.0,0.0,75,0.00,,---,0.00,VWS V14.00,2013-09-08 15:57:00,
2013-09-08 12:02:00,83.6,74.8,30.04,North,0,0.0,0.0,75,0.00,,---,0.00,VWS V14.00,2013-09-08 16:02:00,
2013-09-08 12:07:00,84.0,75.2,30.04,ENE,68,0.0,0.0,75,0.00,,---,0.00,VWS V14.00,2013-09-08 16:07:00,
2013-09-08 12:12:00,84.0,75.2,30.04,East,90,0.0,0.0,75,0.00,,---,0.00,VWS V14.00,2013-09-08 16:12:00,
2013-09-08 12:17:00,84.2,75.0,30.04,SE,135,0.0,0.0,74,0.00,,---,0.00,VWS V14.00,2013-09-08 16:17:00,
2013-09-08 12:22:00,84.5,75.7,30.03,ESE,112,0.0,0.0,75,0.00,,---,0.00,VWS V14.00,2013-09-08 16:22:00,
2013-09-08 12:27:00,84.9,76.1,30.03,West,270,0.0,0.0,75,0.00,,---,0.00,VWS V14.00,2013-09-08 16:27:00,
2013-09-08 12:32:00,85.2,75.6,30.03,West,270,0.0,0.0,73,0.00,,---,0.00,VWS V14.00,2013-09-08 16:32:00,
2013-09-08 12:37:00,84.9,75.3,30.03,WSW,248,0.0,0.0,73,0.00,,---,0.00,VWS V14.00,2013-09-08 16:37:00,
2013-09-08 12:42:00,84.5,74.9,30.03,West,270,0.0,0.0,73,0.00,,---,0.00,VWS V14.00,2013-09-08 16:42:00,
2013-09-08 12:47:00,84.0,74.8,30.03,West,270,0.0,0.0,74,0.00,,---,0.00,VWS V14.00,2013-09-08 16:47:00,
2013-09-08 12:52:00,84.0,75.2,30.03,WNW,292,0.0,0.0,75,0.00,,---,0.00,VWS V14.00,2013-09-08 16:52:00,
2013-09-08 12:57:00,84.0,74.8,30.03,WNW,292,0.0,0.0,74,0.00,,---,0.00,VWS V14.00,2013-09-08 16:57:00,
2013-09-08 13:02:00,83.1,74.0,30.03,ENE,68,0.0,0.0,74,0.00,,---,0.00,VWS V14.00,2013-09-08 17:02:00,
2013-09-08 13:07:00,82.9,74.2,30.03,ENE,68,0.0,0.0,75,0.00,,---,0.00,VWS V14.00,2013-09-08 17:07:00,
2013-09-08 13:12:00,82.7,74.0,30.03,NW,315,0.0,0.0,75,0.00,,---,0.00,VWS V14.00,2013-09-08 17:12:00,
2013-09-08 13:18:00,82.7,74.0,30.03,NW,315,0.0,0.0,75,0.00,,---,0.00,VWS V14.00,2013-09-08 17:18:00,
2013-09-08 13:23:00,82.9,74.2,30.03,NW,315,0.0,0.0,75,0.00,,---,0.00,VWS V14.00,2013-09-08 17:23:00,
2013-09-08 13:28:00,82.9,74.6,30.03,NW,315,0.0,0.0,76,0.00,,---,0.00,VWS V14.00,2013-09-08 17:28:00,
2013-09-08 13:33:00,83.1,74.8,30.03,NW,315,0.0,0.0,76,0.00,,---,0.00,VWS V14.00,2013-09-08 17:33:00,
2013-09-08 13:38:00,83.4,75.1,30.03,NW,315,0.0,0.0,76,0.00,,---,0.00,VWS V14.00,2013-09-08 17:38:00,
2013-09-08 13:43:00,83.4,75.1,30.03,WNW,292,0.0,0.0,76,0.00,,---,0.00,VWS V14.00,2013-09-08 17:43:00,
2013-09-08 13:48:00,83.8,75.4,30.03,West,270,0.0,0.0,76,0.00,,---,0.00,VWS V14.00,2013-09-08 17:48:00,
2013-09-08 13:53:00,84.0,75.6,30.03,WSW,248,0.0,0.0,76,0.00,,---,0.00,VWS V14.00,2013-09-08 17:53:00,
2013-09-08 13:58:00,84.0,75.6,30.03,WSW,248,0.0,0.0,76,0.00,,---,0.00,VWS V14.00,2013-09-08 17:58:00,
2013-09-08 14:03:00,83.8,75.0,30.03,WSW,248,0.0,0.0,75,0.00,,---,0.00,VWS V14.00,2013-09-08 18:03:00,
2013-09-08 14:08:00,83.4,74.7,30.03,WSW,248,0.0,0.0,75,0.00,,---,0.00,VWS V14.00,2013-09-08 18:08:00,
2013-09-08 14:13:00,83.1,74.0,30.03,WSW,248,0.0,0.0,74,0.00,,---,0.00,VWS V14.00,2013-09-08 18:13:00,
2013-09-08 14:18:00,82.2,73.1,30.03,ENE,68,0.0,0.0,74,0.00,,---,0.00,VWS V14.00,2013-09-08 18:18:00,
2013-09-08 14:23:00,81.3,72.6,30.03,ENE,68,0.0,0.0,75,0.00,,---,0.00,VWS V14.00,2013-09-08 18:23:00,
2013-09-08 14:28:00,81.1,72.8,30.03,ENE,68,0.0,0.0,76,0.00,,---,0.00,VWS V14.00,2013-09-08 18:28:00,
2013-09-08 14:33:00,81.3,73.4,30.02,ENE,68,0.0,0.0,77,0.00,,---,0.00,VWS V14.00,2013-09-08 18:33:00,
2013-09-08 14:38:00,81.3,73.0,30.02,NNE,22,0.0,0.0,76,0.00,,---,0.00,VWS V14.00,2013-09-08 18:38:00,
2013-09-08 14:43:00,81.5,73.2,30.02,NE,45,0.0,0.0,76,0.00,,---,0.00,VWS V14.00,2013-09-08 18:43:00,
2013-09-08 14:48:00,80.9,72.2,30.02,ENE,68,0.0,0.0,75,0.00,,---,0.00,VWS V14.00,2013-09-08 18:48:00,
2013-09-08 14:53:00,80.7,72.8,30.02,WSW,248,0.0,0.0,77,0.00,,---,0.00,VWS V14.00,2013-09-08 18:53:00,
2013-09-08 14:58:00,80.9,73.4,30.02,WSW,248,0.0,0.0,78,0.00,,---,0.00,VWS V14.00,2013-09-08 18:58:00,
2013-09-08 15:03:00,81.1,73.6,30.02,East,90,0.0,0.0,78,0.00,,---,0.00,VWS V14.00,2013-09-08 19:03:00,
2013-09-08 15:08:00,81.1,72.8,30.02,ENE,68,0.0,0.0,76,0.00,,---,0.00,VWS V14.00,2013-09-08 19:08:00,
2013-09-08 15:13:00,80.9,73.0,30.02,West,270,0.0,0.0,77,0.00,,---,0.00,VWS V14.00,2013-09-08 19:13:00,
2013-09-08 15:18:00,80.9,73.4,30.02,West,270,0.0,0.0,78,0.00,,---,0.00,VWS V14.00,2013-09-08 19:18:00,
2013-09-08 15:23:00,81.3,73.4,30.01,East,90,0.0,0.0,77,0.00,,---,0.00,VWS V14.00,2013-09-08 19:23:00,
2013-09-08 15:28:00,81.6,73.7,30.01,ENE,68,0.0,0.0,77,0.00,,---,0.00,VWS V14.00,2013-09-08 19:28:00,
2013-09-08 15:33:00,81.6,73.3,30.01,ENE,68,0.0,0.0,76,0.00,,---,0.00,VWS V14.00,2013-09-08 19:33:00,
2013-09-08 15:38:00,81.6,72.9,30.01,ENE,68,0.0,0.0,75,0.00,,---,0.00,VWS V14.00,2013-09-08 19:38:00,
2013-09-08 15:43:00,81.6,72.9,30.00,ENE,68,0.0,0.0,75,0.00,,---,0.00,VWS V14.00,2013-09-08 19:43:00,
2013-09-08 15:48:00,81.3,72.2,30.00,NE,45,0.0,0.0,74,0.00,,---,0.00,VWS V14.00,2013-09-08 19:48:00,
2013-09-08 15:53:00,80.7,72.0,30.01,SE,135,0.0,0.0,75,0.00,,---,0.00,VWS V14.00,2013-09-08 19:53:00,
2013-09-08 15:58:00,80.7,72.0,30.01,South,180,0.0,0.0,75,0.00,,---,0.00,VWS V14.00,2013-09-08 19:58:00,
2013-09-08 16:03:00,80.6,72.3,30.00,NE,45,0.0,0.0,76,0.00,,---,0.00,VWS V14.00,2013-09-08 20:03:00,
2013-09-08 16:08:00,80.2,72.3,30.00,NE,45,0.0,0.0,77,0.00,,---,0.00,VWS V14.00,2013-09-08 20:08:00,
2013-09-08 16:13:00,80.2,72.3,30.00,North,0,0.0,0.0,77,0.00,,---,0.00,VWS V14.00,2013-09-08 20:13:00,
2013-09-08 16:18:00,80.0,72.2,30.00,North,0,0.0,0.0,77,0.00,,---,0.00,VWS V14.00,2013-09-08 20:18:00,
2013-09-08 16:23:00,79.8,71.9,30.00,NNW,338,0.0,0.0,77,0.00,,---,0.00,VWS V14.00,2013-09-08 20:23:00,
2013-09-08 16:28:00,79.8,72.3,30.00,NNW,338,0.0,0.0,78,0.00,,---,0.00,VWS V14.00,2013-09-08 20:28:00,
2013-09-08 16:33:00,79.7,72.6,30.00,NNW,338,0.0,0.0,79,0.00,,---,0.00,VWS V14.00,2013-09-08 20:33:00,
2013-09-08 16:38:00,79.3,71.5,30.00,ENE,68,0.0,0.0,77,0.00,,---,0.00,VWS V14.00,2013-09-08 20:38:00,
2013-09-08 16:43:00,79.1,71.3,30.01,ENE,68,0.0,0.0,77,0.00,,---,0.00,VWS V14.00,2013-09-08 20:43:00,
2013-09-08 16:48:00,79.1,71.7,30.00,NE,45,0.0,0.0,78,0.00,,---,0.00,VWS V14.00,2013-09-08 20:48:00,
2013-09-08 16:53:00,78.9,71.5,30.00,WSW,248,0.0,0.0,78,0.00,,---,0.00,VWS V14.00,2013-09-08 20:53:00,
2013-09-08 16:58:00,78.6,71.2,30.00,ENE,68,0.0,0.0,78,0.00,,---,0.00,VWS V14.00,2013-09-08 20:58:00,
2013-09-08 17:03:00,78.6,70.8,30.00,ENE,68,0.0,0.0,77,0.00,,---,0.00,VWS V14.00,2013-09-08 21:03:00,
2013-09-08 17:08:00,78.6,70.4,30.00,NNE,22,0.0,0.0,76,0.00,,---,0.00,VWS V14.00,2013-09-08 21:08:00,
2013-09-08 17:13:00,78.4,70.6,30.00,NNE,22,0.0,0.0,77,0.00,,---,0.00,VWS V14.00,2013-09-08 21:13:00,
2013-09-08 17:18:00,78.0,70.2,30.00,NNE,22,0.0,0.0,77,0.00,,---,0.00,VWS V14.00,2013-09-08 21:18:00,
2013-09-08 17:23:00,78.0,69.8,30.00,ENE,68,0.0,0.0,76,0.00,,---,0.00,VWS V14.00,2013-09-08 21:23:00,
2013-09-08 17:28:00,78.0,70.2,30.00,ENE,68,0.0,0.0,77,0.00,,---,0.00,VWS V14.00,2013-09-08 21:28:00,
2013-09-08 17:33:00,77.7,69.9,30.00,ENE,68,0.0,0.0,77,0.00,,---,0.00,VWS V14.00,2013-09-08 21:33:00,
2013-09-08 17:38:00,77.7,69.9,29.99,ENE,68,0.0,0.0,77,0.00,,---,0.00,VWS V14.00,2013-09-08 21:38:00,
2013-09-08 17:43:00,77.7,69.9,29.99,ENE,68,0.0,0.0,77,0.00,,---,0.00,VWS V14.00,2013-09-08 21:43:00,
2013-09-08 17:48:00,77.7,70.3,29.99,NE,45,0.0,0.0,78,0.00,,---,0.00,VWS V14.00,2013-09-08 21:48:00,
2013-09-08 17:53:00,77.5,70.8,30.00,NW,315,0.0,0.0,80,0.00,,---,0.00,VWS V14.00,2013-09-08 21:53:00,
2013-09-08 17:58:00,77.5,70.8,29.99,NW,315,0.0,0.0,80,0.00,,---,0.00,VWS V14.00,2013-09-08 21:58:00,
2013-09-08 18:03:00,77.3,70.7,30.00,NW,315,0.0,0.0,80,0.00,,---,0.00,VWS V14.00,2013-09-08 22:03:00,
2013-09-08 18:08:00,77.0,70.7,30.00,NW,315,0.0,0.0,81,0.00,,---,0.00,VWS V14.00,2013-09-08 22:08:00,
2013-09-08 18:13:00,76.8,70.5,30.00,NW,315,0.0,0.0,81,0.00,,---,0.00,VWS V14.00,2013-09-08 22:13:00,
2013-09-08 18:18:00,76.6,70.3,30.00,NW,315,0.0,0.0,81,0.00,,---,0.00,VWS V14.00,2013-09-08 22:18:00,
2013-09-08 18:23:00,76.2,70.3,30.00,NW,315,0.0,0.0,82,0.00,,---,0.00,VWS V14.00,2013-09-08 22:23:00,
2013-09-08 18:28:00,75.9,70.4,30.00,NW,315,0.0,0.0,83,0.00,,---,0.00,VWS V14.00,2013-09-08 22:28:00,
2013-09-08 18:33:00,75.7,70.2,30.00,NW,315,0.0,0.0,83,0.00,,---,0.00,VWS V14.00,2013-09-08 22:33:00,
2013-09-08 18:38:00,75.5,70.3,30.00,NW,315,0.0,0.0,84,0.00,,---,0.00,VWS V14.00,2013-09-08 22:38:00,
2013-09-08 18:43:00,75.3,70.1,30.00,NW,315,0.0,0.0,84,0.00,,---,0.00,VWS V14.00,2013-09-08 22:43:00,
2013-09-08 18:48:00,75.0,70.2,30.00,NW,315,0.0,0.0,85,0.00,,---,0.00,VWS V14.00,2013-09-08 22:48:00,
2013-09-08 18:53:00,74.8,70.0,30.00,NW,315,0.0,0.0,85,0.00,,---,0.00,VWS V14.00,2013-09-08 22:53:00,
2013-09-08 18:58:00,74.8,70.0,30.00,NW,315,0.0,0.0,85,0.00,,---,0.00,VWS V14.00,2013-09-08 22:58:00,
2013-09-08 19:03:00,74.4,69.9,30.00,NW,315,0.0,0.0,86,0.00,,---,0.00,VWS V14.00,2013-09-08 23:03:00,
2013-09-08 19:08:00,73.9,69.8,29.99,NW,315,0.0,0.0,87,0.00,,---,0.00,VWS V14.00,2013-09-08 23:08:00,
2013-09-08 19:13:00,73.7,69.6,30.00,NW,315,0.0,0.0,87,0.00,,---,0.00,VWS V14.00,2013-09-08 23:13:00,
2013-09-08 19:18:00,73.2,69.1,30.00,NW,315,0.0,0.0,87,0.00,,---,0.00,VWS V14.00,2013-09-08 23:18:00,
2013-09-08 19:23:00,73.0,68.9,30.00,NW,315,0.0,0.0,87,0.00,,---,0.00,VWS V14.00,2013-09-08 23:23:00,
2013-09-08 19:29:00,72.6,68.8,30.00,NW,315,0.0,0.0,88,0.00,,---,0.00,VWS V14.00,2013-09-08 23:29:00,
2013-09-08 19:34:00,72.3,68.6,30.00,NW,315,0.0,0.0,88,0.00,,---,0.00,VWS V14.00,2013-09-08 23:34:00,
2013-09-08 19:39:00,71.9,68.5,30.00,NW,315,0.0,0.0,89,0.00,,---,0.00,VWS V14.00,2013-09-08 23:39:00,
2013-09-08 19:44:00,71.6,68.2,30.00,NW,315,0.0,0.0,89,0.00,,---,0.00,VWS V14.00,2013-09-08 23:44:00,
2013-09-08 19:49:00,71.2,67.8,30.00,NW,315,0.0,0.0,89,0.00,,---,0.00,VWS V14.00,2013-09-08 23:49:00,
2013-09-08 19:54:00,70.8,67.7,30.00,NW,315,0.0,0.0,90,0.00,,---,0.00,VWS V14.00,2013-09-08 23:54:00,
2013-09-08 19:59:00,70.5,67.4,30.00,NW,315,0.0,0.0,90,0.00,,---,0.00,VWS V14.00,2013-09-08 23:59:00,
2013-09-08 20:04:00,70.3,67.6,30.00,NW,315,0.0,0.0,91,0.00,,---,0.00,VWS V14.00,2013-09-09 00:04:00,
2013-09-08 20:09:00,69.8,67.1,30.01,NW,315,0.0,0.0,91,0.00,,---,0.00,VWS V14.00,2013-09-09 00:09:00,
2013-09-08 20:14:00,69.4,66.7,30.01,NW,315,0.0,0.0,91,0.00,,---,0.00,VWS V14.00,2013-09-09 00:14:00,
2013-09-08 20:19:00,69.2,66.8,30.01,NW,315,0.0,0.0,92,0.00,,---,0.00,VWS V14.00,2013-09-09 00:19:00,
2013-09-08 20:24:00,69.0,66.6,30.01,NW,315,0.0,0.0,92,0.00,,---,0.00,VWS V14.00,2013-09-09 00:24:00,
2013-09-08 20:29:00,68.7,66.3,30.01,NW,315,0.0,0.0,92,0.00,,---,0.00,VWS V14.00,2013-09-09 00:29:00,
2013-09-08 20:34:00,68.5,66.4,30.02,NW,315,0.0,0.0,93,0.00,,---,0.00,VWS V14.00,2013-09-09 00:34:00,
2013-09-08 20:39:00,68.3,66.2,30.02,NW,315,0.0,0.0,93,0.00,,---,0.00,VWS V14.00,2013-09-09 00:39:00,
2013-09-08 20:44:00,68.1,66.3,30.02,NW,315,0.0,0.0,94,0.00,,---,0.00,VWS V14.00,2013-09-09 00:44:00,
2013-09-08 20:49:00,67.8,66.0,30.02,NW,315,0.0,0.0,94,0.00,,---,0.00,VWS V14.00,2013-09-09 00:49:00,
2013-09-08 20:54:00,67.8,66.0,30.03,NW,315,0.0,0.0,94,0.00,,---,0.00,VWS V14.00,2013-09-09 00:54:00,
2013-09-08 20:59:00,67.6,65.8,30.03,NW,315,0.0,0.0,94,0.00,,---,0.00,VWS V14.00,2013-09-09 00:59:00,
2013-09-08 21:04:00,67.4,65.6,30.03,NW,315,0.0,0.0,94,0.00,,---,0.00,VWS V14.00,2013-09-09 01:04:00,
2013-09-08 21:09:00,67.2,65.4,30.03,NW,315,0.0,0.0,94,0.00,,---,0.00,VWS V14.00,2013-09-09 01:09:00,
2013-09-08 21:14:00,67.1,65.6,30.03,NW,315,0.0,0.0,95,0.00,,---,0.00,VWS V14.00,2013-09-09 01:14:00,
2013-09-08 21:19:00,66.9,65.4,30.03,NW,315,0.0,0.0,95,0.00,,---,0.00,VWS V14.00,2013-09-09 01:19:00,
2013-09-08 21:24:00,66.7,65.2,30.03,NW,315,0.0,0.0,95,0.00,,---,0.00,VWS V14.00,2013-09-09 01:24:00,
2013-09-08 21:29:00,66.7,65.2,30.03,NW,315,0.0,0.0,95,0.00,,---,0.00,VWS V14.00,2013-09-09 01:29:00,
2013-09-08 21:34:00,66.5,65.0,30.03,NW,315,0.0,0.0,95,0.00,,---,0.00,VWS V14.00,2013-09-09 01:34:00,
2013-09-08 21:39:00,66.3,65.1,30.03,NW,315,0.0,0.0,96,0.00,,---,0.00,VWS V14.00,2013-09-09 01:39:00,
2013-09-08 21:44:00,66.3,65.1,30.04,NW,315,0.0,0.0,96,0.00,,---,0.00,VWS V14.00,2013-09-09 01:44:00,
2013-09-08 21:49:00,66.2,65.0,30.04,NW,315,0.0,0.0,96,0.00,,---,0.00,VWS V14.00,2013-09-09 01:49:00,
2013-09-08 21:54:00,66.0,64.8,30.04,NW,315,0.0,0.0,96,0.00,,---,0.00,VWS V14.00,2013-09-09 01:54:00,
2013-09-08 21:59:00,66.0,64.8,30.04,NW,315,0.0,0.0,96,0.00,,---,0.00,VWS V14.00,2013-09-09 01:59:00,
2013-09-08 22:04:00,65.8,64.9,30.04,NW,315,0.0,0.0,97,0.00,,---,0.00,VWS V14.00,2013-09-09 02:04:00,
2013-09-08 22:09:00,65.8,64.9,30.04,NW,315,0.0,0.0,97,0.00,,---,0.00,VWS V14.00,2013-09-09 02:09:00,
2013-09-08 22:14:00,65.6,64.7,30.04,NW,315,0.0,0.0,97,0.00,,---,0.00,VWS V14.00,2013-09-09 02:14:00,
2013-09-08 22:19:00,65.4,64.5,30.04,NW,315,0.0,0.0,97,0.00,,---,0.00,VWS V14.00,2013-09-09 02:19:00,
2013-09-08 22:24:00,65.4,64.5,30.04,NW,315,0.0,0.0,97,0.00,,---,0.00,VWS V14.00,2013-09-09 02:24:00,
2013-09-08 22:29:00,65.3,64.4,30.04,NW,315,0.0,0.0,97,0.00,,---,0.00,VWS V14.00,2013-09-09 02:29:00,
2013-09-08 22:34:00,65.3,64.4,30.04,NW,315,0.0,0.0,97,0.00,,---,0.00,VWS V14.00,2013-09-09 02:34:00,
2013-09-08 22:39:00,65.3,64.4,30.04,NW,315,0.0,0.0,97,0.00,,---,0.00,VWS V14.00,2013-09-09 02:39:00,
2013-09-08 22:44:00,65.1,64.5,30.05,NW,315,0.0,0.0,98,0.00,,---,0.00,VWS V14.00,2013-09-09 02:44:00,
2013-09-08 22:49:00,65.1,64.5,30.05,NW,315,0.0,0.0,98,0.00,,---,0.00,VWS V14.00,2013-09-09 02:49:00,
2013-09-08 22:54:00,64.9,64.3,30.04,NW,315,0.0,0.0,98,0.00,,---,0.00,VWS V14.00,2013-09-09 02:54:00,
2013-09-08 22:59:00,64.9,64.3,30.05,NW,315,0.0,0.0,98,0.00,,---,0.00,VWS V14.00,2013-09-09 02:59:00,
2013-09-08 23:04:00,64.9,64.3,30.05,NW,315,0.0,0.0,98,0.00,,---,0.00,VWS V14.00,2013-09-09 03:04:00,
2013-09-08 23:09:00,64.9,64.3,30.05,NW,315,0.0,0.0,98,0.00,,---,0.00,VWS V14.00,2013-09-09 03:09:00,
2013-09-08 23:14:00,64.9,64.3,30.05,NW,315,0.0,0.0,98,0.00,,---,0.00,VWS V14.00,2013-09-09 03:14:00,
2013-09-08 23:19:00,64.9,64.3,30.05,NW,315,0.0,0.0,98,0.00,,---,0.00,VWS V14.00,2013-09-09 03:19:00,
2013-09-08 23:24:00,64.9,64.6,30.05,NW,315,0.0,0.0,99,0.00,,---,0.00,VWS V14.00,2013-09-09 03:24:00,
2013-09-08 23:29:00,64.9,64.6,30.05,NW,315,0.0,0.0,99,0.00,,---,0.00,VWS V14.00,2013-09-09 03:29:00,
2013-09-08 23:35:00,64.9,64.6,30.05,NW,315,0.0,0.0,99,0.00,,---,0.00,VWS V14.00,2013-09-09 03:35:00,
2013-09-08 23:40:00,64.9,64.6,30.05,NW,315,0.0,0.0,99,0.00,,---,0.00,VWS V14.00,2013-09-09 03:40:00,
2013-09-08 23:45:00,64.9,64.6,30.05,NW,315,0.0,0.0,99,0.00,,---,0.00,VWS V14.00,2013-09-09 03:45:00,
2013-09-08 23:50:00,64.9,64.6,30.06,NW,315,0.0,0.0,99,0.00,,---,0.00,VWS V14.00,2013-09-09 03:50:00,
2013-09-08 23:55:00,65.1,64.8,30.06,NW,315,0.0,0.0,99,0.00,,---,0.00,VWS V14.00,2013-09-09 03:55:00,